• Join FlightAware (Why Join?)
  • Login
  • US Flag GB Flag 
20:42 EST


 

Airport Tracker/Info


-or-


 

Live Flight TrackerFlight Track Log ✈ N641BB ✈ 25-Apr-2013 ✈ KLEX - KPBX

Flight Track Log - Related Links

Times and Time Zones

All times are in EDT time to prevent confusion due to time zone crossing. See the N641BB flight status page for this flight to view local times or setup timezone preferences in your user account.

Time Position Orientation Groundspeed Altitude Reporting Facility
EDT Latitude Longitude Course Direction KTS MPH feet Rate Location/Type
19:08 37.9853 -84.5239 107° East 118 136 3,200  Level Indianapolis Center
19:09 37.9739 -84.4831 109° East 121 139 3,900 660 Climbing Indianapolis Center
19:10 37.9631 -84.4422 109° East 122 140 4,600 480 Climbing Indianapolis Center
19:11 37.9783 -84.3475 106° East  Level Estimated
19:11 37.9542 -84.4000 105° East 122 140 5,000  Level Indianapolis Center
19:12 37.9659 -84.2955 107° East  Level FlightAware Approximate
19:12 37.9439 -84.3508 105° East 133 153 5,100  Level Indianapolis Center
19:13 37.9534 -84.2436 107° East  Level FlightAware Approximate
19:13 37.9344 -84.2992 103° East 142 163 5,100  Level Indianapolis Center
19:14 37.9225 -84.2456 106° East 151 174 5,000 -60 Descending Indianapolis Center
19:15 37.9097 -84.1842 105° East 154 177 5,000  Level Indianapolis Center
19:16 37.8997 -84.1311 103° East 155 178 5,000  Level Indianapolis Center
19:17 37.8883 -84.0781 105° East 155 178 5,000  Level Indianapolis Center
19:18 37.8775 -84.0261 105° East 155 178 5,000  Level Indianapolis Center
19:19 37.8661 -83.9750 106° East 152 175 5,000  Level Indianapolis Center
19:20 37.8556 -83.9228 104° East 152 175 5,000  Level Indianapolis Center
19:21 37.8422 -83.8617 105° East 153 176 5,000 -60 Level Indianapolis Center
19:22 37.8322 -83.8106 104° East 152 175 4,900 -60 Descending Indianapolis Center
19:23 37.8211 -83.7569 105° East 154 177 4,900  Level Indianapolis Center
19:24 37.8089 -83.7033 106° East 156 180 4,900  Level Indianapolis Center
19:25 37.7978 -83.6503 105° East 156 180 4,900  Level Indianapolis Center
19:26 37.7872 -83.5972 104° East 156 180 4,900  Level Indianapolis Center
19:27 37.7739 -83.5375 106° East 153 176 4,900  Level Indianapolis Center
19:28 37.7633 -83.4864 105° East 152 175 4,900  Level Indianapolis Center
19:29 37.7514 -83.4336 106° East 153 176 4,900  Level Indianapolis Center
19:30 37.7394 -83.3792 105° East 156 180 4,900  Level Indianapolis Center
19:31 37.7281 -83.3278 106° East 155 178 4,900  Level Indianapolis Center
19:32 37.7161 -83.2753 106° East 155 178 4,900 -60 Level Indianapolis Center
19:33 37.7044 -83.2233 106° East 154 177 4,800 -180 Descending Indianapolis Center
19:34 37.6911 -83.1606 105° East 156 180 4,600 -180 Descending Indianapolis Center
19:35 37.6808 -83.1042 103° East 160 184 4,500 -60 Descending Indianapolis Center
19:36 37.6681 -83.0494 106° East 162 186 4,500 -60 Level Indianapolis Center
19:38 37.6561 -82.9961 106° East 160 184 4,400 -60 Descending Indianapolis Center
19:39 37.6439 -82.9436 106° East 158 182 4,400  Level Indianapolis Center
19:40 37.6294 -82.8919 109° East 157 181 4,400  Level Indianapolis Center